User: anonymous   Login
Location: Unspecified
(0.0000°N, 0.0000°E)
Time: 11:35:33
(UTC+00:00)
Language:

OAO 1 - Orbit

View from above orbital plane
View from above orbital plane
View from above satellite
View from above satellite

Ground track
Ground track

The orbit data is extracted from the following two-line orbital elements,

1  2142U 66031A   17264.87495631 +.00000018 +00000-0 +13168-4 0  9990
2  2142 035.0453 113.4406 0006616 143.2958 216.8184 14.33871135692868
Epoch (UTC): 21 September 2017 20:59:56
Eccentricity: 0.0006616
inclination: 35.0453°
perigee height: 774 km
apogee height: 783 km
right ascension of ascending node: 113.4406°
argument of perigee: 143.2958°
revolutions per day: 14.33871135
mean anomaly at epoch: 216.8184°
orbit number at epoch: 69286

The dashed part of the orbit path shows where the satellite is in the earth's shadow,  

DLR